FW6558 Weather Reports


Display with metric or nautical units.
time (UTC)temp
F
wind
direction
speed
MPH
gust
MPH
rain 1hr
in
rain 24hr
in
rain mn
in
humidity
%
barometer
mb
20260508114804 48 232 1.0 2.0 0.00 0.00 0.00 51 1019.3
20260508114304 47 212 1.0 3.0 0.00 0.00 0.00 51 1019.2
20260508113804 47 237 1.0 2.0 0.00 0.00 0.00 54 1019.2
20260508112804 44 238 1.0 2.0 0.00 0.00 0.00 57 1019.6
20260508111804 43 270 3.0 6.0 0.00 0.00 0.00 61 1019.5
20260508111304 44 275 3.0 7.0 0.00 0.00 0.00 61 1019.8
20260508110803 43 277 3.0 7.0 0.00 0.00 0.00 61 1019.6
20260508110304 43 270 2.0 6.0 0.00 0.00 0.00 62 1019.7
20260508105803 43 280 3.0 6.0 0.00 0.00 0.00 62 1020.0
20260508105306 42 271 3.0 5.0 0.00 0.00 0.00 63 1019.7
20260508104804 42 252 2.0 6.0 0.00 0.00 0.00 66 1019.9
20260508104304 42 264 2.0 6.0 0.00 0.00 0.00 66 1019.8
20260508103803 42 255 3.0 6.0 0.00 0.00 0.00 67 1019.8
20260508103304 41 258 3.0 6.0 0.00 0.00 0.00 68 1019.7
20260508102306 41 243 2.0 5.0 0.00 0.00 0.00 70 1019.9
20260508101804 41 251 3.0 6.0 0.00 0.00 0.00 70 1019.9
20260508100804 41 263 3.0 6.0 0.00 0.00 0.00 71 1019.8
20260508100303 41 244 2.0 6.0 0.00 0.00 0.00 73 1019.9
20260508095804 42 278 3.0 6.0 0.00 0.00 0.00 70 1019.6
20260508095306 42 244 2.0 6.0 0.00 0.00 0.00 68 1019.3
20260508094804 42 241 3.0 5.0 0.00 0.00 0.00 68 1019.5
20260508094304 43 256 3.0 5.0 0.00 0.00 0.00 67 1019.2
20260508093304 43 250 3.0 5.0 0.00 0.00 0.00 68 1019.5
20260508092312 42 259 3.0 5.0 0.00 0.00 0.00 69 1019.4
20260508091803 42 243 2.0 5.0 0.00 0.00 0.00 69 1019.4
20260508091304 42 258 3.0 7.0 0.00 0.00 0.00 69 1019.4
20260508090808 43 264 3.0 8.0 0.00 0.00 0.00 68 1019.0
20260508090307 43 245 3.0 7.0 0.00 0.00 0.00 69 1019.2
20260508085808 43 265 4.0 7.0 0.00 0.00 0.00 68 1019.1
20260508085308 43 263 3.0 7.0 0.00 0.00 0.00 69 1019.1
20260508084808 42 274 4.0 7.0 0.00 0.00 0.00 69 1019.3
20260508084307 42 241 5.0 7.0 0.00 0.01 0.00 71 1019.3
20260508083807 42 251 3.0 5.0 0.00 0.01 0.00 71 1019.2
20260508083307 42 251 3.0 5.0 0.00 0.01 0.00 72 1019.3
20260508082807 42 252 3.0 3.0 0.00 0.01 0.00 73 1019.3
20260508082307 42 248 2.0 3.0 0.00 0.01 0.00 73 1019.5
20260508081808 42 253 2.0 5.0 0.00 0.01 0.00 74 1019.3
20260508081307 42 269 4.0 7.0 0.00 0.01 0.00 74 1019.3
20260508080808 41 271 5.0 7.0 0.00 0.01 0.00 76 1019.2
20260508080308 41 252 2.0 3.0 0.00 0.01 0.00 79 1019.6
20260508074807 42 244 1.0 1.0 0.00 0.01 0.00 76 1019.2
20260508074307 43 267 1.0 5.0 0.00 0.01 0.00 74 1019.0
20260508073807 43 266 2.0 3.0 0.00 0.01 0.00 74 1019.0
20260508073307 43 258 3.0 5.0 0.00 0.01 0.00 75 1019.0
20260508072308 43 268 4.0 7.0 0.00 0.01 0.00 75 1018.8
20260508071307 43 269 3.0 6.0 0.00 0.01 0.00 76 1019.0
20260508065807 43 272 4.0 6.0 0.00 0.01 0.00 78 1018.9
20260508065307 43 284 3.0 6.0 0.00 0.01 0.00 79 1018.6
20260508064807 43 257 3.0 6.0 0.00 0.01 0.00 79 1018.8
20260508064307 43 243 2.0 5.0 0.00 0.01 0.00 79 1018.9
20260508063307 44 277 2.0 5.0 0.00 0.01 0.00 79 1018.8
20260508062807 44 271 2.0 6.0 0.00 0.01 0.00 80 1018.7
20260508062307 44 253 4.0 6.0 0.00 0.01 0.00 80 1018.7
20260508061807 44 280 4.0 8.0 0.00 0.01 0.00 79 1018.5
20260508061307 44 266 5.0 8.0 0.00 0.01 0.00 79 1018.9
20260508060807 45 268 5.0 7.0 0.00 0.01 0.00 78 1018.6
20260508060307 45 269 5.0 7.0 0.00 0.01 0.00 78 1018.6
20260508055807 45 274 5.0 9.0 0.00 0.01 0.00 78 1018.6
20260508055307 45 261 7.0 9.0 0.00 0.01 0.00 79 1018.6
20260508054807 45 265 7.0 9.0 0.00 0.01 0.00 80 1018.6
20260508054307 45 270 6.0 9.0 0.00 0.01 0.00 79 1018.6
20260508053807 45 282 7.0 9.0 0.00 0.01 0.00 79 1018.4
20260508053307 45 288 7.0 10.0 0.00 0.01 0.00 80 1018.5
20260508052807 45 280 8.0 12.0 0.00 0.01 0.00 80 1018.6
20260508052307 45 270 8.0 12.0 0.00 0.01 0.00 80 1018.5
20260508051807 45 274 8.0 12.0 0.00 0.01 0.00 80 1018.3
20260508051307 45 273 8.0 9.0 0.00 0.01 0.00 82 1018.6
20260508050806 45 269 6.0 10.0 0.00 0.01 0.00 81 1018.3
20260508050307 45 278 7.0 10.0 0.00 0.01 0.00 83 1018.3
20260508045807 45 262 7.0 8.0 0.00 0.01 0.00 83 1018.0
20260508045307 45 270 6.0 10.0 0.00 0.01 0.00 83 1018.2
20260508044807 46 261 8.0 10.0 0.00 0.01 0.00 82 1018.1
20260508044307 46 258 6.0 9.0 0.00 0.01 0.00 83 1018.0
20260508043806 46 266 6.0 9.0 0.00 0.01 0.00 83 1018.0
20260508043307 46 269 6.0 9.0 0.00 0.01 0.00 83 1017.9
20260508042807 46 265 5.0 8.0 0.00 0.01 0.00 83 1017.9
20260508042308 46 255 3.0 8.0 0.00 0.01 0.00 84 1017.7
20260508040806 46 271 6.0 8.0 0.00 0.01 0.00 83 1017.5
20260508035307 46 271 6.0 8.0 0.00 0.01 0.01 83 1017.4
20260508034807 46 262 6.0 8.0 0.00 0.01 0.01 83 1017.4
20260508034307 47 269 5.0 8.0 0.00 0.01 0.01 83 1017.3
20260508033806 47 275 6.0 10.0 0.00 0.01 0.01 82 1017.3
20260508033307 47 277 7.0 9.0 0.00 0.01 0.01 83 1017.5
20260508032807 47 276 7.0 9.0 0.00 0.01 0.01 83 1017.3
20260508032306 47 284 6.0 9.0 0.00 0.01 0.01 83 1017.2
20260508031807 47 286 6.0 9.0 0.00 0.01 0.01 83 1017.1
20260508031307 47 280 5.0 12.0 0.00 0.01 0.01 83 1017.0
20260508030807 47 279 9.0 12.0 0.00 0.01 0.01 83 1017.0
20260508030306 47 268 9.0 10.0 0.00 0.01 0.01 82 1016.8
20260508025807 47 285 9.0 12.0 0.00 0.01 0.01 82 1016.8
20260508025306 47 272 9.0 12.0 0.00 0.02 0.01 82 1016.9
20260508024806 47 275 10.0 14.0 0.00 0.02 0.01 81 1016.9
20260508024307 47 278 9.0 14.0 0.00 0.02 0.01 81 1016.6
20260508023806 47 270 10.0 14.0 0.00 0.02 0.01 80 1016.6
20260508023307 48 277 11.0 14.0 0.00 0.03 0.01 80 1016.7
20260508022307 47 271 10.0 14.0 0.00 0.03 0.01 78 1016.5
20260508021807 48 285 10.0 14.0 0.00 0.03 0.01 78 1016.3
20260508021306 48 276 10.0 14.0 0.00 0.03 0.01 78 1016.2
20260508020807 48 273 10.0 14.0 0.00 0.03 0.01 78 1016.1
20260508020306 48 271 10.0 15.0 0.00 0.03 0.01 77 1016.2
20260508015806 48 269 10.0 14.0 0.00 0.03 0.01 78 1016.2
20260508015307 48 276 9.0 13.0 0.00 0.03 0.01 78 1016.0
20260508014807 48 276 9.0 14.0 0.00 0.03 0.01 78 1015.9
20260508014306 48 252 10.0 13.0 0.00 0.03 0.01 78 1015.9
20260508013806 48 279 9.0 13.0 0.00 0.03 0.01 79 1015.8
20260508013306 48 272 10.0 14.0 0.00 0.03 0.01 78 1015.7
20260508012806 48 266 10.0 13.0 0.00 0.03 0.01 78 1015.5
20260508012307 48 261 9.0 13.0 0.00 0.03 0.01 78 1015.3
20260508011807 48 282 9.0 13.0 0.00 0.03 0.01 78 1015.5
20260508011306 48 265 9.0 14.0 0.00 0.03 0.01 79 1015.3
20260508010306 48 268 10.0 14.0 0.00 0.03 0.01 79 1015.3
20260508005806 48 274 8.0 14.0 0.00 0.03 0.01 79 1015.0
20260508005306 48 268 9.0 14.0 0.00 0.03 0.01 79 1014.8
20260508004806 48 279 11.0 14.0 0.00 0.03 0.01 79 1014.8
20260508003807 48 268 11.0 16.0 0.00 0.03 0.01 80 1015.1
20260508003306 49 273 11.0 16.0 0.00 0.03 0.01 79 1014.8
20260508002806 48 268 12.0 16.0 0.00 0.03 0.01 79 1014.9
20260508002307 49 273 10.0 14.0 0.00 0.03 0.01 79 1015.1
20260508001306 49 264 8.0 14.0 0.00 0.03 0.01 77 1014.9
20260508000807 49 276 7.0 15.0 0.00 0.03 0.01 76 1015.0
20260508000306 49 261 9.0 15.0 0.00 0.03 0.01 76 1014.9
20260507235307 50 263 10.0 16.0 0.00 0.03 0.01 75 1014.9
20260507234806 50 265 10.0 17.0 0.00 0.03 0.01 73 1014.7
20260507234306 50 272 11.0 18.0 0.00 0.03 0.01 75 1014.7
20260507233306 51 290 10.0 13.0 0.00 0.03 0.01 74 1014.3
20260507232806 50 293 10.0 20.0 0.00 0.03 0.01 74 1014.5
20260507231806 51 286 13.0 20.0 0.00 0.03 0.01 74 1014.3
20260507231306 51 290 14.0 23.0 0.00 0.03 0.01 75 1014.2
20260507230806 51 287 12.0 20.0 0.00 0.03 0.01 74 1014.0
20260507230306 52 297 12.0 20.0 0.00 0.03 0.01 73 1013.7
20260507225306 51 307 11.0 18.0 0.00 0.03 0.01 75 1013.9
20260507224806 50 282 13.0 17.0 0.00 0.03 0.01 77 1014.2
20260507224306 50 284 12.0 18.0 0.00 0.03 0.01 77 1013.9
20260507223806 50 286 15.0 18.0 0.00 0.03 0.01 77 1013.9
20260507223306 50 268 12.0 21.0 0.00 0.03 0.01 77 1013.9
20260507222806 50 272 14.0 22.0 0.00 0.03 0.01 77 1013.9
20260507222306 50 278 12.0 18.0 0.00 0.03 0.01 77 1013.7
20260507221806 50 285 15.0 25.0 0.00 0.03 0.01 77 1013.6
20260507221306 50 274 17.0 22.0 0.00 0.03 0.01 78 1013.6
20260507220806 50 280 14.0 20.0 0.00 0.03 0.01 77 1013.3
20260507220305 50 282 13.0 18.0 0.00 0.03 0.01 78 1013.6
20260507215307 51 278 12.0 17.0 0.00 0.03 0.01 77 1013.2
20260507214806 52 284 10.0 16.0 0.00 0.03 0.01 77 1013.1
20260507214306 51 296 9.0 17.0 0.00 0.03 0.01 77 1013.3
20260507213806 51 280 10.0 18.0 0.00 0.03 0.01 78 1013.1
20260507213306 51 280 16.0 18.0 0.00 0.03 0.01 76 1013.1
20260507212806 51 311 10.0 18.0 0.00 0.03 0.01 77 1013.0
20260507212307 51 283 10.0 20.0 0.00 0.03 0.01 79 1013.4
20260507211806 50 271 11.0 18.0 0.00 0.03 0.01 79 1013.3
20260507211305 50 265 13.0 20.0 0.00 0.03 0.01 80 1013.3
20260507210806 50 265 12.0 18.0 0.00 0.03 0.01 82 1013.5
20260507210306 50 274 13.0 18.0 0.00 0.03 0.01 82 1013.7
20260507205307 50 276 14.0 23.0 0.00 0.03 0.01 82 1013.4
20260507204806 50 295 12.0 21.0 0.00 0.03 0.01 81 1013.4
20260507204305 51 301 14.0 26.0 0.00 0.03 0.01 79 1012.5
20260507203806 52 297 14.0 24.0 0.00 0.03 0.01 78 1012.3
20260507203306 52 277 14.0 24.0 0.00 0.03 0.01 77 1012.1
20260507202307 53 303 16.0 22.0 0.00 0.03 0.01 78 1012.0
20260507201306 53 298 14.0 20.0 0.00 0.03 0.01 80 1011.6
20260507200806 54 293 12.0 22.0 0.00 0.03 0.01 80 1011.4
20260507195806 54 280 13.0 17.0 0.00 0.03 0.01 78 1011.4
20260507195306 54 272 13.0 17.0 0.00 0.03 0.01 80 1011.6
20260507194805 54 296 11.0 18.0 0.00 0.03 0.01 80 1011.5
20260507194305 54 289 13.0 18.0 0.00 0.03 0.01 78 1011.7
20260507193805 53 267 10.0 16.0 0.00 0.03 0.01 82 1011.8
20260507192306 54 295 11.0 15.0 0.00 0.03 0.01 81 1011.9
20260507191806 54 272 11.0 17.0 0.00 0.03 0.01 83 1011.9
20260507191305 54 284 11.0 16.0 0.00 0.03 0.01 84 1011.9
20260507190806 55 272 12.0 16.0 0.00 0.03 0.01 82 1011.7
20260507190305 57 306 11.0 16.0 0.00 0.03 0.01 77 1011.2
20260507185805 56 304 9.0 18.0 0.00 0.03 0.01 82 1011.4
20260507185306 57 290 11.0 18.0 0.00 0.03 0.01 79 1011.4
20260507184805 57 311 9.0 17.0 0.00 0.03 0.01 81 1011.1
20260507184305 57 311 9.0 15.0 0.00 0.03 0.01 79 1011.3
20260507182307 57 282 8.0 14.0 0.00 0.03 0.01 81 1011.3
20260507181805 58 260 5.0 13.0 0.00 0.03 0.01 82 1011.2
20260507181305 57 315 6.0 9.0 0.00 0.03 0.01 84 1011.3
20260507180806 56 301 6.0 12.0 0.00 0.03 0.01 87 1011.8
20260507180305 54 314 4.0 9.0 0.00 0.03 0.01 89 1012.3
20260507175307 54 310 5.0 9.0 0.00 0.03 0.01 89 1012.2
20260507174305 54 324 2.0 10.0 0.00 0.03 0.01 88 1012.0
20260507173805 54 221 1.0 10.0 0.00 0.03 0.01 89 1012.1
20260507173305 54 311 2.0 8.0 0.00 0.03 0.01 88 1012.2
20260507172805 54 295 5.0 9.0 0.00 0.03 0.01 87 1012.1
20260507172307 55 304 4.0 7.0 0.00 0.03 0.01 85 1011.7
20260507171805 55 324 1.0 2.0 0.00 0.03 0.01 87 1011.8
20260507171305 55 315 1.0 2.0 0.00 0.03 0.01 86 1011.6
20260507170805 54 43 1.0 5.0 0.00 0.03 0.01 88 1012.0
20260507170305 54 26 3.0 6.0 0.00 0.03 0.01 90 1012.3
20260507164805 53 52 3.0 5.0 0.00 0.03 0.01 90 1012.3
20260507163305 53 328 2.0 5.0 0.00 0.03 0.01 90 1012.3
20260507162307 53 21 2.0 5.0 0.00 0.03 0.01 90 1012.3
20260507161805 54 31 2.0 5.0 0.00 0.04 0.01 90 1012.0
20260507160805 54 303 1.0 2.0 0.00 0.06 0.01 90 1012.4
20260507160305 54 17 2.0 3.0 0.00 0.06 0.01 90 1012.4
20260507155306 53 302 2.0 5.0 0.00 0.06 0.01 92 1012.7
20260507154805 53 291 2.0 6.0 0.00 0.06 0.01 93 1012.7
20260507153805 53 304 5.0 7.0 0.00 0.06 0.01 91 1012.9
20260507153305 54 306 3.0 6.0 0.00 0.06 0.01 90 1012.8
20260507152805 54 14 1.0 3.0 0.00 0.06 0.01 91 1012.6
20260507152306 54 19 1.0 2.0 0.00 0.06 0.01 91 1012.4
20260507151805 54 356 1.0 2.0 0.00 0.06 0.01 92 1012.3
20260507151305 54 17 1.0 2.0 0.00 0.06 0.01 93 1012.6
20260507150805 53 17 1.0 2.0 0.00 0.06 0.01 93 1012.8
20260507150305 53 21 1.0 2.0 0.00 0.06 0.01 93 1012.5
20260507145306 53 317 1.0 3.0 0.00 0.06 0.01 92 1012.7
20260507144805 53 300 0.0 3.0 0.00 0.06 0.01 92 1012.5
20260507144304 53 31 1.0 3.0 0.00 0.06 0.01 92 1012.5
20260507143804 53 4 1.0 3.0 0.00 0.06 0.01 93 1012.5
20260507142805 54 21 1.0 3.0 0.00 0.06 0.01 92 1012.4
20260507142307 54 355 0.0 2.0 0.00 0.06 0.01 92 1012.3
20260507141805 54 16 0.0 3.0 0.00 0.06 0.01 93 1012.1
20260507141304 54 22 1.0 3.0 0.00 0.06 0.01 93 1012.1
20260507140804 54 17 1.0 2.0 0.00 0.06 0.01 92 1012.4
20260507140305 55 28 1.0 3.0 0.00 0.06 0.01 93 1012.2
20260507135805 55 41 2.0 5.0 0.00 0.06 0.01 94 1012.1
20260507134804 54 31 2.0 3.0 0.00 0.06 0.01 94 1012.5
20260507134304 54 33 2.0 2.0 0.00 0.06 0.01 94 1012.4
20260507133304 54 238 1.0 5.0 0.00 0.07 0.01 95 1012.3
20260507132804 55 34 2.0 6.0 0.00 0.07 0.01 95 1012.2
20260507132307 55 25 2.0 6.0 0.00 0.08 0.01 94 1012.0
20260507131804 55 47 3.0 6.0 0.00 0.08 0.01 95 1011.8
20260507131304 55 46 3.0 6.0 0.00 0.09 0.01 95 1011.6
20260507130804 55 55 5.0 6.0 0.00 0.10 0.01 95 1011.6
20260507130304 55 36 4.0 6.0 0.00 0.10 0.01 95 1011.8
20260507125804 55 70 3.0 7.0 0.00 0.10 0.01 96 1012.2
20260507124804 55 70 5.0 7.0 0.00 0.10 0.01 97 1012.0
20260507124304 54 57 5.0 7.0 0.00 0.10 0.01 97 1012.0
20260507123804 54 71 5.0 6.0 0.00 0.10 0.01 97 1012.5
20260507123304 54 57 2.0 5.0 0.00 0.10 0.01 97 1012.5
20260507122804 55 66 2.0 2.0 0.00 0.10 0.01 97 1012.7
20260507121804 55 9 1.0 2.0 0.00 0.10 0.01 98 1013.0
20260507121304 55 78 1.0 2.0 0.00 0.11 0.01 98 1012.9
20260507120804 54 108 0.0 1.0 0.00 0.11 0.01 98 1012.9
20260507120304 54 107 1.0 2.0 0.00 0.11 0.01 98 1012.8
20260507115804 54 67 2.0 3.0 0.00 0.11 0.01 98 1012.6